ARG1654 SAZS-SABE

Flight info

Callsign ARG1654
Flight time 0h 34m
Altitude 35000
Route LIMAY1C LIMAY UW26 EGUNO UZ109 ISMIL UT655 ASADA ASADA9R
Aircraft B738/M-SDE2E3FGHIRWXY/LB1

Departure

Time 2026-05-07 19:42
Airport Teniente Luis Candelaria International Airport (SAZS)

Arrival

Time 2026-05-07 20:17
Airport Aeroparque Jorge Newbery (SABE)
Time Latitude Longitude Altitude Speed Heading
2026-05-07 19:08 -41.14654 -71.16226 2748 ft 0 kts 70°
2026-05-07 19:34 -41.14659 -71.16243 2748 ft 2 kts 69°
2026-05-07 19:34 -41.14669 -71.16254 2751 ft 2 kts 338°
2026-05-07 19:35 -41.14684 -71.16248 2749 ft 2 kts 346°
2026-05-07 19:35 -41.14700 -71.16243 2748 ft 2 kts 350°
2026-05-07 19:35 -41.14716 -71.16239 2749 ft 2 kts 344°
2026-05-07 19:35 -41.14732 -71.16234 2751 ft 2 kts
2026-05-07 19:36 -41.14747 -71.16242 2750 ft 2 kts 26°
2026-05-07 19:36 -41.14761 -71.16254 2751 ft 2 kts 41°
2026-05-07 19:36 -41.14773 -71.16267 2751 ft 2 kts 27°
2026-05-07 19:36 -41.14777 -71.16270 2750 ft 0 kts 27°
2026-05-07 19:37 -41.14774 -71.16256 2752 ft 2 kts 98°
2026-05-07 19:37 -41.14806 -71.16182 2748 ft 14 kts 115°
2026-05-07 19:38 -41.14850 -71.16056 2748 ft 16 kts 114°
2026-05-07 19:38 -41.14900 -71.15922 2749 ft 17 kts 117°
2026-05-07 19:38 -41.14952 -71.15774 2750 ft 18 kts 114°
2026-05-07 19:38 -41.15007 -71.15615 2748 ft 21 kts 115°
2026-05-07 19:39 -41.15077 -71.15408 2748 ft 28 kts 111°
2026-05-07 19:39 -41.15174 -71.15149 2749 ft 35 kts 114°
2026-05-07 19:39 -41.15372 -71.14555 2748 ft 15 kts 115°
2026-05-07 19:40 -41.15379 -71.14536 2748 ft 2 kts 116°
2026-05-07 19:40 -41.15427 -71.14472 2748 ft 16 kts 169°
2026-05-07 19:40 -41.15526 -71.14519 2748 ft 9 kts 204°
2026-05-07 19:40 -41.15530 -71.14569 2748 ft 0 kts 295°
2026-05-07 19:41 -41.15481 -71.14705 2752 ft 47 kts 296°
2026-05-07 19:41 -41.15249 -71.15377 2751 ft 111 kts 295°
2026-05-07 19:41 -41.14836 -71.16506 2815 ft 157 kts 296°
2026-05-07 19:42 -41.14252 -71.17807 3329 ft 172 kts 299°
2026-05-07 19:42 -41.13614 -71.19236 3792 ft 187 kts 294°
2026-05-07 19:42 -41.13016 -71.20797 4360 ft 194 kts 289°
2026-05-07 19:42 -41.12559 -71.22498 5019 ft 196 kts 285°
2026-05-07 19:43 -41.12095 -71.24221 5535 ft 201 kts 286°
2026-05-07 19:43 -41.11583 -71.25978 6089 ft 207 kts 288°
2026-05-07 19:43 -41.10682 -71.27535 6619 ft 226 kts 321°
2026-05-07 19:43 -41.09130 -71.28161 7115 ft 247 kts 352°
2026-05-07 19:44 -41.07362 -71.27920 7526 ft 264 kts
2026-05-07 19:44 -41.05511 -71.27388 7845 ft 281 kts
2026-05-07 19:44 -41.03554 -71.26807 8127 ft 301 kts
2026-05-07 19:44 -41.01589 -71.25699 8624 ft 319 kts 36°
2026-05-07 19:45 -41.00110 -71.23427 8916 ft 334 kts 63°
2026-05-07 19:45 -40.99030 -71.20715 9607 ft 341 kts 66°
2026-05-07 19:45 -40.97908 -71.17901 10291 ft 348 kts 66°
2026-05-07 19:45 -40.96751 -71.15061 10952 ft 353 kts 65°
2026-05-07 19:46 -40.95570 -71.12196 11622 ft 357 kts 65°
2026-05-07 19:46 -40.94383 -71.09329 12268 ft 363 kts 65°
2026-05-07 19:46 -40.93148 -71.06365 12908 ft 369 kts 65°
2026-05-07 19:46 -40.91900 -71.03368 13561 ft 374 kts 65°
2026-05-07 19:47 -40.90636 -71.00328 14190 ft 379 kts 65°
2026-05-07 19:47 -40.89352 -70.97248 14808 ft 384 kts 65°
2026-05-07 19:47 -40.82779 -70.81539 17760 ft 406 kts 63°
2026-05-07 19:47 -40.71113 -70.54560 21808 ft 440 kts 56°
2026-05-07 19:48 -40.52340 -70.32752 25428 ft 461 kts 45°
2026-05-07 19:48 -40.37752 -70.05316 28368 ft 464 kts 65°
2026-05-07 19:48 -40.24586 -69.77253 31680 ft 462 kts 56°
2026-05-07 19:48 -40.08250 -69.51538 34233 ft 456 kts 52°
2026-05-07 19:49 -39.92507 -69.25735 35285 ft 459 kts 56°
2026-05-07 19:49 -39.77301 -68.98785 35402 ft 489 kts 55°
2026-05-07 19:49 -39.60245 -68.70366 35245 ft 516 kts 53°
2026-05-07 19:49 -39.42266 -68.40947 34803 ft 519 kts 54°
2026-05-07 19:50 -39.26739 -68.11080 34569 ft 480 kts 61°
2026-05-07 19:50 -39.10657 -67.87029 34481 ft 454 kts 46°
2026-05-07 19:50 -38.94014 -67.63894 34606 ft 430 kts 55°
2026-05-07 19:50 -38.91887 -67.60215 34655 ft 430 kts 60°
2026-05-07 19:51 -38.88512 -67.53804 34766 ft 436 kts 59°
2026-05-07 19:51 -38.84905 -67.47497 34849 ft 444 kts 56°
2026-05-07 19:52 -38.81036 -67.41188 34857 ft 454 kts 54°
2026-05-07 19:52 -38.77044 -67.34830 34858 ft 464 kts 54°
2026-05-07 19:53 -38.72952 -67.28333 34859 ft 474 kts 54°
2026-05-07 19:53 -38.66367 -67.17868 34937 ft 486 kts 54°
2026-05-07 19:53 -38.49374 -66.90978 34941 ft 515 kts 54°
2026-05-07 19:54 -38.30954 -66.62040 34792 ft 528 kts 55°
2026-05-07 19:54 -38.16797 -66.30483 34727 ft 515 kts 71°
2026-05-07 19:54 -37.91455 -65.66632 34775 ft 518 kts 63°
2026-05-07 19:55 -37.76947 -65.35216 34682 ft 505 kts 66°
2026-05-07 19:55 -37.64070 -65.04542 34693 ft 496 kts 67°
2026-05-07 19:55 -37.15417 -63.96684 34870 ft 495 kts 64°
2026-05-07 19:56 -36.61410 -62.80577 34734 ft 496 kts 59°
2026-05-07 19:56 -36.33263 -62.22996 34560 ft 491 kts 57°
2026-05-07 19:56 -36.06158 -61.68098 34569 ft 478 kts 55°
2026-05-07 19:57 -35.84494 -61.24497 34634 ft 468 kts 55°
2026-05-07 19:57 -35.71213 -60.97720 34609 ft 464 kts 54°
2026-05-07 19:58 -35.57820 -60.70933 34610 ft 458 kts 53°
2026-05-07 19:58 -35.44430 -60.44356 33894 ft 456 kts 52°
2026-05-07 19:59 -35.38755 -60.33139 31712 ft 452 kts 50°
2026-05-07 19:59 -35.37108 -60.29889 31272 ft 445 kts 49°
2026-05-07 19:59 -35.35492 -60.26702 30797 ft 441 kts 48°
2026-05-07 19:59 -35.33875 -60.23520 30347 ft 436 kts 47°
2026-05-07 20:00 -35.32296 -60.20415 29892 ft 431 kts 47°
2026-05-07 20:00 -35.30713 -60.17309 29380 ft 427 kts 46°
2026-05-07 20:00 -35.29149 -60.14241 28895 ft 420 kts 46°
2026-05-07 20:00 -35.27604 -60.11211 28427 ft 414 kts 46°
2026-05-07 20:01 -35.26107 -60.08279 27986 ft 409 kts 46°
2026-05-07 20:01 -35.24597 -60.05328 27515 ft 404 kts 46°
2026-05-07 20:01 -35.23113 -60.02430 27073 ft 400 kts 46°
2026-05-07 20:01 -35.21709 -59.99690 26645 ft 396 kts 46°
2026-05-07 20:02 -35.20271 -59.96886 26213 ft 392 kts 46°
2026-05-07 20:02 -35.18824 -59.94067 25775 ft 389 kts 46°
2026-05-07 20:02 -35.17384 -59.91264 25342 ft 386 kts 46°
2026-05-07 20:02 -35.15963 -59.88499 24890 ft 383 kts 45°
2026-05-07 20:03 -35.14563 -59.85776 24483 ft 380 kts 45°
2026-05-07 20:03 -35.13159 -59.83048 24072 ft 377 kts 45°
2026-05-07 20:03 -35.11762 -59.80338 23649 ft 375 kts 45°
2026-05-07 20:03 -35.10370 -59.77639 23206 ft 374 kts 45°
2026-05-07 20:04 -35.08998 -59.74983 22716 ft 372 kts 45°
2026-05-07 20:04 -35.07617 -59.72307 22275 ft 370 kts 45°
2026-05-07 20:04 -35.06249 -59.69656 21839 ft 367 kts 46°
2026-05-07 20:04 -35.04382 -59.66043 21273 ft 365 kts 46°
2026-05-07 20:05 -34.98877 -59.55715 19281 ft 369 kts 45°
2026-05-07 20:05 -34.93111 -59.45341 17410 ft 370 kts 47°
2026-05-07 20:05 -34.87419 -59.35016 15707 ft 363 kts 49°
2026-05-07 20:05 -34.81832 -59.24912 14101 ft 355 kts 52°
2026-05-07 20:06 -34.76525 -59.15329 12375 ft 332 kts 53°
2026-05-07 20:06 -34.71510 -59.06300 11137 ft 310 kts 52°
2026-05-07 20:06 -34.66931 -58.98096 10208 ft 301 kts 51°
2026-05-07 20:06 -34.62277 -58.89764 9685 ft 283 kts 51°
2026-05-07 20:07 -34.58131 -58.82351 8695 ft 253 kts 50°
2026-05-07 20:07 -34.56486 -58.77187 7995 ft 262 kts 107°
2026-05-07 20:07 -34.57148 -58.75120 7838 ft 269 kts 110°
2026-05-07 20:07 -34.57867 -58.72894 7601 ft 295 kts 110°
2026-05-07 20:08 -34.58588 -58.70547 7256 ft 296 kts 109°
2026-05-07 20:08 -34.59267 -58.68213 6960 ft 289 kts 108°
2026-05-07 20:08 -34.59913 -58.65916 6673 ft 283 kts 108°
2026-05-07 20:08 -34.60522 -58.63718 6407 ft 277 kts 109°
2026-05-07 20:09 -34.61129 -58.61517 6138 ft 272 kts 109°
2026-05-07 20:09 -34.61714 -58.59354 5869 ft 272 kts 109°
2026-05-07 20:09 -34.62294 -58.57176 5593 ft 274 kts 109°
2026-05-07 20:10 -34.63478 -58.52731 4951 ft 286 kts 110°
2026-05-07 20:10 -34.64090 -58.50429 4526 ft 287 kts 111°
2026-05-07 20:10 -34.64697 -58.48146 4238 ft 281 kts 112°
2026-05-07 20:10 -34.65285 -58.45920 3981 ft 273 kts 112°
2026-05-07 20:11 -34.65867 -58.43730 3739 ft 273 kts 112°
2026-05-07 20:11 -34.66442 -58.41571 3495 ft 271 kts 113°
2026-05-07 20:11 -34.67020 -58.39393 3233 ft 269 kts 113°
2026-05-07 20:11 -34.67591 -58.37240 3033 ft 264 kts 114°
2026-05-07 20:12 -34.68142 -58.35154 2982 ft 253 kts 114°
2026-05-07 20:12 -34.68664 -58.33164 2961 ft 242 kts 114°
2026-05-07 20:12 -34.69117 -58.31211 2968 ft 242 kts 101°
2026-05-07 20:12 -34.68807 -58.29204 2976 ft 247 kts 59°
2026-05-07 20:13 -34.67607 -58.27732 2988 ft 248 kts 23°
2026-05-07 20:13 -34.66007 -58.27251 2989 ft 234 kts 347°
2026-05-07 20:13 -34.64511 -58.27711 2979 ft 211 kts 329°
2026-05-07 20:13 -34.63202 -58.28536 2292 ft 215 kts 310°
2026-05-07 20:14 -34.62307 -58.29933 1798 ft 206 kts 296°
2026-05-07 20:14 -34.61546 -58.31308 1537 ft 185 kts 297°
2026-05-07 20:14 -34.60876 -58.32524 1362 ft 165 kts 296°
2026-05-07 20:14 -34.60259 -58.33658 1175 ft 162 kts 296°
2026-05-07 20:15 -34.59638 -58.34795 1011 ft 162 kts 297°
2026-05-07 20:15 -34.59019 -58.35908 828 ft 153 kts 298°
2026-05-07 20:15 -34.58451 -58.36961 714 ft 141 kts 300°
2026-05-07 20:15 -34.57964 -58.37910 583 ft 127 kts 297°
2026-05-07 20:16 -34.57483 -58.38787 442 ft 123 kts 301°
2026-05-07 20:16 -34.56988 -58.39652 243 ft 122 kts 301°
2026-05-07 20:16 -34.56498 -58.40530 75 ft 127 kts 299°
2026-05-07 20:16 -34.56050 -58.41358 26 ft 106 kts 302°
2026-05-07 20:17 -34.55820 -58.41765 23 ft 30 kts 304°
2026-05-07 20:17 -34.55741 -58.41902 25 ft 8 kts 327°
2026-05-07 20:17 -34.55668 -58.41881 27 ft 16 kts 30°
2026-05-07 20:17 -34.55622 -58.41781 28 ft 18 kts 124°
2026-05-07 20:18 -34.55702 -58.41632 25 ft 7 kts 123°
2026-05-07 20:18 -34.55724 -58.41554 24 ft 7 kts 61°
2026-05-07 20:18 -34.55662 -58.41534 26 ft 2 kts 10°